[[{"header":{"parameterUnit":"m.s-1","parameterCategory":1,"la1":30.2992,"la2":30.254,"lo1":-89.0895,"lo2":-89.0443,"dy":0.0025,"dx":0.0025,"nx":19,"ny":19,"refTime":"2026-04-17T03:00:00:Z","depth":0,"parameterNumber":2,"parameterNumberName":"U-component_of_WINDS"},"data":[0,0,0,-0.7153,-0.7153,-0.7145,-0.7144,-0.715,-0.715,0,0,0,0,0,0,0,0,0,0,0,-0.7165,-0.7166,-0.7153,-0.7153,-0.7145,-0.7144,-0.715,-0.715,0,0,0,0,0,0,0,0,0,0,0,-0.7165,-0.7166,-0.7166,-0.7153,-0.7145,-0.7144,-0.715,-0.7151,0,0,0,0,0,0,0,0,0,0,-0.7157,-0.7176,-0.7165,-0.7166,-0.7153,-0.7145,-0.7144,-0.7151,-0.7151,-0.7161,0,-0.7172,0,-0.7161,-0.7152,-0.7152,0,0,0,-0.7146,-0.7176,-0.7166,-0.7166,-0.7153,-0.7145,-0.7147,-0.715,-0.7151,-0.7162,-0.7172,-0.7172,-0.7162,-0.7152,-0.7152,-0.7234,-0.7235,0,0,-0.7147,-0.7169,-0.7166,-0.7166,-0.7168,-0.7147,-0.7146,-0.715,-0.7164,-0.7172,-0.7172,-0.7162,-0.7152,-0.7152,-0.7234,-0.7235,0,0,0,-0.7153,-0.717,-0.7158,-0.7166,-0.7164,-0.7147,-0.7146,-0.7163,-0.7158,-0.7172,-0.7162,-0.7152,-0.7152,-0.7233,-0.7234,-0.7291,0,0,0,-0.7153,-0.7173,-0.7159,-0.7172,-0.7164,-0.7163,-0.7159,-0.7158,-0.7157,-0.7162,-0.7152,-0.7153,-0.7232,-0.7234,-0.7288,-0.7314,0,0,0,-0.7163,-0.7174,-0.7176,-0.7173,-0.717,-0.7162,-0.7157,-0.7157,-0.7152,-0.7152,-0.7153,-0.7232,-0.7233,-0.7285,-0.7309,-0.7344,0,0,0,-0.7179,-0.7226,-0.7177,-0.7225,-0.717,-0.7198,-0.7157,-0.7176,-0.7183,-0.7152,-0.7232,-0.7234,-0.7284,-0.7306,-0.7341,-0.7377,-0.7394,0,0,-0.725,-0.7235,-0.7262,-0.7218,-0.726,-0.7197,-0.7247,-0.7233,-0.7213,-0.7229,-0.723,-0.7289,-0.7309,-0.7343,-0.7479,-0.7493,0,0,0,-0.7292,-0.7311,-0.7318,-0.7325,-0.7316,-0.731,-0.7285,-0.7281,-0.7293,-0.7225,-0.7309,-0.7321,-0.734,-0.7356,-0.7368,-0.7383,-0.7242,-0.7242,-0.7242,-0.7423,-0.7396,-0.7439,-0.7411,-0.7419,-0.7394,-0.7399,-0.7388,-0.7357,-0.7377,-0.7382,-0.7468,-0.7488,-0.7497,-0.7513,-0.7398,-0.7398,-0.7399,-0.7399,-0.7525,-0.7549,-0.7508,-0.7535,-0.7507,-0.7529,-0.7508,-0.7486,-0.7504,-0.7462,-0.7477,-0.7435,-0.7512,-0.7525,-0.7403,-0.7402,-0.7402,-0.7401,-0.7401,-0.7609,-0.7615,-0.7609,-0.7619,-0.763,-0.76,-0.7619,-0.7592,-0.7566,-0.7582,-0.7585,-0.7584,-0.758,-0.7585,-0.7585,-0.7586,-0.7586,-0.7586,-0.7586,-0.7698,-0.7689,-0.7708,-0.7704,-0.7706,-0.7706,-0.7683,-0.7685,-0.768,-0.7659,-0.7659,-0.7628,-0.7525,-0.75,-0.7591,-0.759,-0.7589,-0.7589,-0.7589,-0.7813,-0.7783,-0.7813,-0.7816,-0.7809,-0.7823,-0.7788,-0.7795,-0.7793,-0.7804,-0.7769,-0.7697,-0.768,-0.7671,-0.765,-0.7774,-0.7774,-0.7774,-0.7774,-0.7884,-0.7873,-0.7898,-0.7905,-0.7908,-0.7881,-0.7918,-0.7901,-0.788,-0.7877,-0.7855,-0.7825,-0.7817,-0.7804,-0.7792,-0.7773,-0.7925,-0.7925,-0.7925,-0.7954,-0.7942,-0.7978,-0.7956,-0.7949,-0.7945,-0.7979,-0.7989,-0.7958,-0.7931,-0.7875,-0.7868,-0.782,-0.7805,-0.7777,-0.7758,-0.7722,0,0]},{"header":{"parameterUnit":"m.s-1","parameterCategory":1,"la1":30.2992,"la2":30.254,"lo1":-89.0895,"lo2":-89.0443,"dy":0.0025,"dx":0.0025,"nx":19,"ny":19,"refTime":"2026-04-17T03:00:00:Z","depth":0,"parameterNumber":3,"parameterNumberName":"V-component_of_WINDS"},"data":[0,0,0,1.6995,1.6994,1.6934,1.6933,1.6863,1.6862,0,0,0,0,0,0,0,0,0,0,0,1.7019,1.7019,1.6995,1.6994,1.6934,1.6933,1.6863,1.6862,0,0,0,0,0,0,0,0,0,0,0,1.7019,1.7019,1.7018,1.6994,1.6934,1.6933,1.6863,1.6906,0,0,0,0,0,0,0,0,0,0,1.6963,1.6991,1.7019,1.7018,1.6994,1.6934,1.6933,1.6908,1.6903,1.6894,0,1.6889,0,1.6875,1.6858,1.6858,0,0,0,1.6989,1.6995,1.6974,1.7018,1.6993,1.6934,1.696,1.6905,1.69,1.6888,1.6888,1.6885,1.6874,1.6858,1.6858,1.6824,1.6825,0,0,1.6992,1.7011,1.6978,1.6971,1.6982,1.6962,1.6958,1.6902,1.6902,1.6887,1.6883,1.6872,1.6858,1.6857,1.6824,1.6824,0,0,0,1.7005,1.7013,1.6993,1.6974,1.6963,1.696,1.6955,1.6904,1.6896,1.6882,1.6872,1.6857,1.6856,1.6824,1.6824,1.6846,0,0,0,1.7007,1.7021,1.6995,1.7005,1.6964,1.6933,1.6959,1.69,1.6893,1.6872,1.6857,1.6856,1.6824,1.6824,1.6845,1.6853,0,0,0,1.7021,1.7022,1.7016,1.7006,1.6981,1.6934,1.6922,1.6898,1.6887,1.6858,1.6856,1.6824,1.6824,1.6845,1.6852,1.685,0,0,0,1.704,1.7035,1.7016,1.7006,1.6982,1.6948,1.6922,1.6896,1.6874,1.6857,1.6824,1.6824,1.6845,1.6851,1.6849,1.6851,1.6854,0,0,1.7043,1.7036,1.7028,1.701,1.6985,1.6956,1.6933,1.6894,1.6874,1.6842,1.6841,1.6846,1.6852,1.685,1.6864,1.6867,0,0,0,1.7035,1.703,1.702,1.7,1.6972,1.6948,1.6912,1.6897,1.687,1.6862,1.6844,1.6847,1.6845,1.6845,1.6847,1.6844,1.6825,1.6825,1.6825,1.7065,1.7041,1.7027,1.6996,1.6978,1.6941,1.6924,1.6898,1.6878,1.6874,1.6864,1.6876,1.6877,1.6878,1.6875,1.6864,1.6864,1.6864,1.6864,1.7067,1.7056,1.7031,1.7009,1.6984,1.6964,1.6929,1.6915,1.6893,1.6881,1.6878,1.6867,1.6882,1.6878,1.6865,1.6865,1.6865,1.6865,1.6864,1.7083,1.7073,1.7058,1.7028,1.7008,1.6976,1.6957,1.6934,1.6912,1.6909,1.6896,1.6895,1.6892,1.6905,1.6905,1.6905,1.6905,1.6905,1.6905,1.7105,1.7087,1.7074,1.7045,1.703,1.7008,1.6972,1.6956,1.6932,1.6917,1.6917,1.6897,1.6888,1.6886,1.6905,1.6905,1.6905,1.6905,1.6905,1.7115,1.711,1.709,1.7075,1.704,1.7021,1.6993,1.6963,1.6946,1.6937,1.6918,1.6916,1.6906,1.6904,1.6902,1.6924,1.6924,1.6924,1.6924,1.7129,1.7122,1.7097,1.7075,1.7051,1.7024,1.7001,1.6973,1.6943,1.6931,1.6925,1.6921,1.692,1.691,1.6908,1.6906,1.6929,1.6929,1.6929,1.7133,1.7124,1.7109,1.7082,1.7052,1.7027,1.7005,1.698,1.6945,1.6929,1.6922,1.6921,1.6914,1.6913,1.6896,1.6894,1.6889,0,0]}]]